| time (UTC) | temp C | wind direction | speed KPH | gust KPH | rain 1hr cm | rain 24hr cm | rain mn cm | humidity % | barometer mb |
| 20260510060949 | 21 | 249 | 0.0 | 3.2 | 0.00 | 0.00 | 0.00 | 92 | 1011.8 |
| 20260510060446 | 21 | 227 | 0.0 | 0.0 | 0.00 | 0.00 | 0.00 | 92 | 1012.0 |
| 20260510055942 | 21 | 322 | 0.0 | 0.0 | 0.00 | 0.00 | 0.00 | 91 | 1011.6 |
| 20260510055438 | 21 | 242 | 0.0 | 0.0 | 0.00 | 0.00 | 0.00 | 91 | 1011.7 |
| 20260510054937 | 21 | 269 | 0.0 | 1.6 | 0.00 | 0.00 | 0.00 | 90 | 1011.7 |
| 20260510054431 | 21 | 297 | 0.0 | 0.0 | 0.00 | 0.00 | 0.00 | 89 | 1011.7 |
| 20260510053927 | 21 | 242 | 0.0 | 1.6 | 0.00 | 0.00 | 0.00 | 89 | 1011.8 |
| 20260510053422 | 21 | 297 | 0.0 | 1.6 | 0.00 | 0.00 | 0.00 | 89 | 1011.9 |
| 20260510052919 | 22 | 246 | 0.0 | 0.0 | 0.00 | 0.00 | 0.00 | 89 | 1012.0 |
| 20260510052415 | 22 | 250 | 0.0 | 1.6 | 0.00 | 0.00 | 0.00 | 89 | 1011.9 |
| 20260510051911 | 22 | 256 | 0.0 | 1.6 | 0.00 | 0.00 | 0.00 | 89 | 1012.0 |
| 20260510051408 | 22 | 297 | 0.0 | 0.0 | 0.00 | 0.00 | 0.00 | 88 | 1011.9 |
| 20260510050904 | 22 | 297 | 0.0 | 0.0 | 0.00 | 0.00 | 0.00 | 87 | 1011.9 |
| 20260510050401 | 22 | 235 | 0.0 | 0.0 | 0.00 | 0.00 | 0.00 | 87 | 1012.0 |
| 20260510045858 | 22 | 221 | 1.6 | 1.6 | 0.00 | 0.74 | 0.74 | 87 | 1011.7 |
| 20260510045355 | 22 | 224 | 0.0 | 0.0 | 0.00 | 0.74 | 0.74 | 86 | 1011.8 |
| 20260510044852 | 22 | 235 | 1.6 | 1.6 | 0.00 | 0.74 | 0.74 | 86 | 1011.7 |
| 20260510044349 | 22 | 297 | 0.0 | 0.0 | 0.00 | 0.74 | 0.74 | 85 | 1011.6 |
| 20260510043845 | 23 | 264 | 1.6 | 3.2 | 0.00 | 0.74 | 0.74 | 84 | 1011.7 |
| 20260510043341 | 23 | 352 | 0.0 | 1.6 | 0.00 | 0.74 | 0.74 | 84 | 1011.6 |
| 20260510042839 | 22 | 221 | 1.6 | 4.8 | 0.00 | 0.74 | 0.74 | 88 | 1011.8 |
| 20260510042335 | 22 | 212 | 0.0 | 0.0 | 0.00 | 0.74 | 0.74 | 90 | 1011.5 |
| 20260510041831 | 22 | 55 | 0.0 | 0.0 | 0.00 | 0.74 | 0.74 | 90 | 1011.4 |
| 20260510041329 | 22 | 235 | 0.0 | 0.0 | 0.00 | 0.74 | 0.74 | 88 | 1011.6 |
| 20260510040826 | 22 | 263 | 1.6 | 3.2 | 0.00 | 0.74 | 0.74 | 89 | 1011.5 |
| 20260510040322 | 22 | 269 | 3.2 | 3.2 | 0.00 | 0.74 | 0.74 | 88 | 1011.3 |
| 20260510035818 | 22 | 217 | 0.0 | 0.0 | 0.00 | 0.74 | 0.74 | 89 | 1011.3 |
| 20260510035314 | 22 | 242 | 0.0 | 0.0 | 0.00 | 0.74 | 0.74 | 90 | 1011.3 |
| 20260510034810 | 22 | 228 | 0.0 | 1.6 | 0.00 | 0.74 | 0.74 | 89 | 1011.2 |
| 20260510034308 | 22 | 285 | 0.0 | 1.6 | 0.00 | 0.74 | 0.74 | 90 | 1011.3 |
| 20260510033804 | 22 | 293 | 0.0 | 0.0 | 0.00 | 0.74 | 0.74 | 90 | 1011.2 |
| 20260510033301 | 23 | 237 | 0.0 | 3.2 | 0.00 | 0.74 | 0.74 | 90 | 1011.2 |
| 20260510032757 | 23 | 269 | 0.0 | 0.0 | 0.00 | 0.74 | 0.74 | 88 | 1011.0 |
| 20260510032254 | 23 | 266 | 1.6 | 1.6 | 0.00 | 0.74 | 0.74 | 88 | 1011.0 |
| 20260510031749 | 23 | 256 | 1.6 | 3.2 | 0.00 | 0.74 | 0.74 | 88 | 1011.1 |
| 20260510031245 | 23 | 260 | 1.6 | 3.2 | 0.00 | 0.74 | 0.74 | 88 | 1010.9 |
| 20260510030744 | 23 | 240 | 1.6 | 1.6 | 0.00 | 0.74 | 0.74 | 88 | 1010.9 |
| 20260510030237 | 23 | 230 | 1.6 | 1.6 | 0.00 | 0.74 | 0.74 | 88 | 1010.8 |
| 20260510025734 | 23 | 232 | 1.6 | 3.2 | 0.00 | 0.74 | 0.74 | 88 | 1010.7 |
| 20260510025232 | 23 | 230 | 0.0 | 0.0 | 0.00 | 0.74 | 0.74 | 87 | 1010.6 |
| 20260510024728 | 23 | 257 | 1.6 | 3.2 | 0.00 | 0.74 | 0.74 | 86 | 1010.6 |
| 20260510024225 | 24 | 282 | 0.0 | 1.6 | 0.00 | 0.74 | 0.74 | 84 | 1010.7 |
| 20260510023720 | 25 | 233 | 0.0 | 3.2 | 0.00 | 0.74 | 0.74 | 84 | 1010.7 |
| 20260510023217 | 25 | 251 | 1.6 | 3.2 | 0.00 | 0.74 | 0.74 | 83 | 1010.4 |
| 20260510022713 | 25 | 230 | 0.0 | 0.0 | 0.00 | 0.74 | 0.74 | 81 | 1010.6 |
| 20260510022203 | 25 | 191 | 0.0 | 3.2 | 0.00 | 0.74 | 0.74 | 82 | 1010.4 |
| 20260510021658 | 25 | 195 | 0.0 | 1.6 | 0.00 | 0.74 | 0.74 | 82 | 1010.4 |
| 20260510021155 | 25 | 269 | 0.0 | 1.6 | 0.00 | 0.74 | 0.74 | 82 | 1010.3 |
| 20260510020650 | 25 | 230 | 0.0 | 0.0 | 0.00 | 0.74 | 0.74 | 83 | 1010.5 |
| 20260510020145 | 25 | 309 | 0.0 | 0.0 | 0.00 | 0.74 | 0.74 | 83 | 1010.1 |
| 20260510015642 | 25 | 286 | 1.6 | 1.6 | 0.00 | 0.74 | 0.74 | 82 | 1010.1 |
| 20260510015138 | 25 | 297 | 0.0 | 3.2 | 0.00 | 0.74 | 0.74 | 81 | 1010.1 |
| 20260510014638 | 25 | 298 | 0.0 | 0.0 | 0.00 | 0.74 | 0.74 | 82 | 1009.9 |
| 20260510014136 | 25 | 237 | 1.6 | 3.2 | 0.00 | 0.74 | 0.74 | 82 | 1009.9 |
| 20260510013631 | 25 | 294 | 1.6 | 1.6 | 0.00 | 0.74 | 0.74 | 82 | 1009.8 |
| 20260510013127 | 26 | 309 | 0.0 | 0.0 | 0.00 | 0.74 | 0.74 | 82 | 1009.8 |
| 20260510012626 | 26 | 299 | 0.0 | 1.6 | 0.00 | 0.74 | 0.74 | 80 | 1009.9 |
| 20260510012123 | 26 | 274 | 0.0 | 1.6 | 0.00 | 0.74 | 0.74 | 79 | 1009.8 |
| 20260510011622 | 26 | 259 | 1.6 | 3.2 | 0.00 | 0.74 | 0.74 | 78 | 1009.6 |
| 20260510011118 | 26 | 240 | 0.0 | 3.2 | 0.00 | 0.74 | 0.74 | 76 | 1009.8 |
| 20260510010615 | 26 | 242 | 0.0 | 1.6 | 0.00 | 0.74 | 0.74 | 76 | 1009.6 |
| 20260510010113 | 27 | 284 | 0.0 | 1.6 | 0.00 | 0.74 | 0.74 | 74 | 1009.3 |
| 20260510005608 | 27 | 258 | 0.0 | 1.6 | 0.00 | 0.74 | 0.74 | 73 | 1009.4 |
| 20260510005106 | 27 | 296 | 1.6 | 1.6 | 0.00 | 0.74 | 0.74 | 73 | 1009.4 |
| 20260510004603 | 27 | 129 | 0.0 | 3.2 | 0.00 | 0.74 | 0.74 | 71 | 1009.5 |
| 20260510004101 | 27 | 144 | 0.0 | 1.6 | 0.00 | 0.74 | 0.74 | 71 | 1009.2 |
| 20260510003558 | 28 | 140 | 0.0 | 1.6 | 0.00 | 0.74 | 0.74 | 70 | 1009.1 |
| 20260510003053 | 28 | 104 | 0.0 | 3.2 | 0.00 | 0.74 | 0.74 | 69 | 1009.2 |
| 20260510002548 | 28 | 269 | 0.0 | 1.6 | 0.00 | 0.74 | 0.74 | 67 | 1009.4 |
| 20260510002046 | 30 | 140 | 0.0 | 3.2 | 0.00 | 0.74 | 0.74 | 61 | 1009.2 |
| 20260510001543 | 30 | 269 | 1.6 | 3.2 | 0.00 | 0.74 | 0.74 | 57 | 1009.3 |
| 20260510001042 | 31 | 284 | 0.0 | 1.6 | 0.00 | 0.74 | 0.74 | 56 | 1009.2 |
| 20260510000536 | 31 | 275 | 3.2 | 3.2 | 0.00 | 0.74 | 0.74 | 52 | 1009.0 |
| 20260510000034 | 30 | 264 | 0.0 | 4.8 | 0.00 | 0.74 | 0.74 | 51 | 1009.1 |
| 20260509235530 | 30 | 189 | 1.6 | 3.2 | 0.00 | 0.74 | 0.74 | 52 | 1008.9 |
| 20260509235027 | 30 | 159 | 1.6 | 3.2 | 0.00 | 0.74 | 0.74 | 54 | 1009.0 |
| 20260509234523 | 29 | 174 | 3.2 | 3.2 | 0.00 | 0.74 | 0.74 | 59 | 1009.0 |
| 20260509234021 | 29 | 168 | 0.0 | 4.8 | 0.00 | 0.74 | 0.74 | 60 | 1008.8 |
| 20260509233518 | 30 | 241 | 0.0 | 3.2 | 0.00 | 0.74 | 0.74 | 62 | 1009.0 |
| 20260509233015 | 30 | 272 | 3.2 | 4.8 | 0.00 | 0.74 | 0.74 | 63 | 1008.7 |
| 20260509232512 | 30 | 250 | 3.2 | 4.8 | 0.00 | 0.74 | 0.74 | 61 | 1008.8 |
| 20260509232009 | 28 | 238 | 3.2 | 3.2 | 0.00 | 0.74 | 0.74 | 62 | 1008.8 |
| 20260509231505 | 28 | 142 | 3.2 | 6.4 | 0.00 | 0.74 | 0.74 | 68 | 1009.0 |
| 20260509231003 | 30 | 275 | 1.6 | 3.2 | 0.00 | 0.74 | 0.74 | 67 | 1008.9 |
| 20260509230459 | 30 | 277 | 4.8 | 4.8 | 0.00 | 0.74 | 0.74 | 61 | 1008.9 |
| 20260509225956 | 29 | 249 | 3.2 | 4.8 | 0.00 | 0.74 | 0.74 | 61 | 1009.0 |
| 20260509225452 | 28 | 283 | 3.2 | 4.8 | 0.00 | 0.74 | 0.74 | 70 | 1008.8 |
| 20260509224948 | 27 | 271 | 4.8 | 4.8 | 0.00 | 0.74 | 0.74 | 68 | 1008.9 |
| 20260509224443 | 26 | 112 | 3.2 | 3.2 | 0.00 | 0.74 | 0.74 | 75 | 1008.8 |
| 20260509223941 | 25 | 253 | 0.0 | 3.2 | 0.00 | 0.74 | 0.74 | 76 | 1008.9 |
| 20260509223437 | 24 | 141 | 1.6 | 6.4 | 0.00 | 0.74 | 0.74 | 83 | 1008.7 |
| 20260509222935 | 23 | 291 | 4.8 | 6.4 | 0.05 | 0.74 | 0.74 | 85 | 1008.4 |
| 20260509222430 | 23 | 262 | 4.8 | 9.7 | 0.05 | 0.74 | 0.74 | 82 | 1008.5 |
| 20260509221926 | 22 | 262 | 4.8 | 6.4 | 0.00 | 0.74 | 0.74 | 87 | 1008.8 |
| 20260509221423 | 22 | 264 | 3.2 | 4.8 | 0.00 | 0.74 | 0.74 | 90 | 1008.6 |
| 20260509220918 | 21 | 258 | 8.0 | 14.5 | 0.23 | 0.74 | 0.74 | 87 | 1008.2 |
| 20260509220415 | 21 | 169 | 4.8 | 14.5 | 0.84 | 0.74 | 0.74 | 86 | 1008.4 |
| 20260509215911 | 20 | 279 | 0.0 | 9.7 | 1.37 | 0.66 | 0.66 | 87 | 1008.8 |
| 20260509215406 | 20 | 260 | 4.8 | 12.9 | 1.93 | 0.56 | 0.56 | 84 | 1009.0 |
| 20260509214904 | 21 | 255 | 9.7 | 17.7 | 2.46 | 0.41 | 0.41 | 80 | 1009.8 |
| 20260509214401 | 22 | 38 | 17.7 | 33.8 | 1.14 | 0.18 | 0.18 | 78 | 1009.9 |
| 20260509213858 | 26 | 359 | 12.9 | 17.7 | 0.00 | 0.00 | 0.00 | 70 | 1009.4 |
| 20260509213353 | 29 | 114 | 17.7 | 22.5 | 0.00 | 0.00 | 0.00 | 63 | 1009.2 |
| 20260509212852 | 32 | 248 | 3.2 | 6.4 | 0.00 | 0.00 | 0.00 | 54 | 1008.9 |
| 20260509212349 | 33 | 271 | 4.8 | 8.0 | 0.00 | 0.00 | 0.00 | 54 | 1008.6 |
| 20260509211844 | 34 | 261 | 1.6 | 8.0 | 0.00 | 0.00 | 0.00 | 51 | 1009.0 |
| 20260509211341 | 35 | 291 | 0.0 | 6.4 | 0.00 | 0.00 | 0.00 | 51 | 1008.8 |
| 20260509210837 | 33 | 292 | 1.6 | 8.0 | 0.00 | 0.00 | 0.00 | 53 | 1008.7 |
| 20260509210335 | 33 | 287 | 1.6 | 6.4 | 0.00 | 0.00 | 0.00 | 53 | 1009.0 |
| 20260509205834 | 34 | 223 | 3.2 | 6.4 | 0.00 | 0.00 | 0.00 | 53 | 1008.9 |
| 20260509205329 | 33 | 280 | 4.8 | 6.4 | 0.00 | 0.00 | 0.00 | 53 | 1009.0 |
| 20260509204826 | 33 | 232 | 6.4 | 14.5 | 0.00 | 0.00 | 0.00 | 53 | 1009.0 |
| 20260509204322 | 33 | 247 | 3.2 | 8.0 | 0.00 | 0.00 | 0.00 | 54 | 1009.3 |
| 20260509203819 | 33 | 260 | 4.8 | 8.0 | 0.00 | 0.00 | 0.00 | 54 | 1009.4 |
| 20260509203316 | 32 | 298 | 3.2 | 6.4 | 0.00 | 0.00 | 0.00 | 57 | 1009.3 |
| 20260509202812 | 32 | 251 | 3.2 | 6.4 | 0.00 | 0.00 | 0.00 | 56 | 1009.3 |
| 20260509202309 | 31 | 119 | 6.4 | 8.0 | 0.00 | 0.00 | 0.00 | 61 | 1009.5 |
| 20260509201807 | 31 | 323 | 3.2 | 11.3 | 0.00 | 0.00 | 0.00 | 61 | 1009.7 |
| 20260509201305 | 31 | 137 | 3.2 | 4.8 | 0.00 | 0.00 | 0.00 | 62 | 1009.6 |
| 20260509200801 | 30 | 16 | 6.4 | 9.7 | 0.00 | 0.00 | 0.00 | 62 | 1009.5 |
| 20260509200256 | 30 | 337 | 6.4 | 8.0 | 0.00 | 0.00 | 0.00 | 62 | 1009.7 |
| 20260509195752 | 30 | 323 | 3.2 | 4.8 | 0.00 | 0.00 | 0.00 | 64 | 1009.8 |
| 20260509195248 | 30 | 332 | 6.4 | 6.4 | 0.00 | 0.00 | 0.00 | 65 | 1009.9 |
| 20260509194742 | 30 | 106 | 0.0 | 4.8 | 0.00 | 0.00 | 0.00 | 62 | 1009.7 |
| 20260509194239 | 31 | 301 | 11.3 | 11.3 | 0.00 | 0.00 | 0.00 | 63 | 1010.0 |
| 20260509193736 | 30 | 352 | 0.0 | 4.8 | 0.00 | 0.00 | 0.00 | 61 | 1009.8 |
| 20260509193235 | 30 | 71 | 1.6 | 3.2 | 0.00 | 0.00 | 0.00 | 60 | 1010.0 |
| 20260509192732 | 30 | 315 | 1.6 | 6.4 | 0.00 | 0.00 | 0.00 | 62 | 1010.1 |
| 20260509192227 | 31 | 276 | 0.0 | 6.4 | 0.00 | 0.00 | 0.00 | 61 | 1010.5 |
| 20260509191722 | 30 | 288 | 3.2 | 4.8 | 0.00 | 0.00 | 0.00 | 63 | 1010.3 |
| 20260509191219 | 31 | 84 | 4.8 | 4.8 | 0.00 | 0.00 | 0.00 | 60 | 1010.4 |
| 20260509190715 | 31 | 267 | 4.8 | 9.7 | 0.00 | 0.00 | 0.00 | 60 | 1010.7 |
| 20260509190213 | 32 | 282 | 4.8 | 6.4 | 0.00 | 0.00 | 0.00 | 57 | 1010.7 |
| 20260509185710 | 32 | 299 | 1.6 | 6.4 | 0.00 | 0.00 | 0.00 | 59 | 1010.8 |
| 20260509185206 | 31 | 234 | 3.2 | 4.8 | 0.00 | 0.00 | 0.00 | 61 | 1010.6 |
| 20260509184704 | 31 | 299 | 3.2 | 6.4 | 0.00 | 0.00 | 0.00 | 59 | 1011.2 |
| 20260509184201 | 32 | 106 | 3.2 | 6.4 | 0.00 | 0.00 | 0.00 | 60 | 1011.1 |
| 20260509183657 | 32 | 255 | 0.0 | 4.8 | 0.00 | 0.00 | 0.00 | 61 | 1011.2 |
| 20260509183152 | 31 | 260 | 4.8 | 6.4 | 0.00 | 0.00 | 0.00 | 63 | 1011.0 |
| 20260509182648 | 31 | 193 | 1.6 | 8.0 | 0.00 | 0.00 | 0.00 | 62 | 1011.2 |
| 20260509182146 | 31 | 145 | 3.2 | 6.4 | 0.00 | 0.00 | 0.00 | 63 | 1011.0 |
| 20260509181643 | 31 | 170 | 1.6 | 4.8 | 0.00 | 0.00 | 0.00 | 63 | 1011.2 |
| 20260509181141 | 30 | 172 | 3.2 | 6.4 | 0.00 | 0.00 | 0.00 | 68 | 1011.2 |
| 20260509180637 | 30 | 260 | 6.4 | 8.0 | 0.00 | 0.00 | 0.00 | 65 | 1011.2 |
| 20260509180134 | 29 | 61 | 0.0 | 1.6 | 0.00 | 0.00 | 0.00 | 69 | 1011.2 |
| 20260509175629 | 28 | 350 | 3.2 | 6.4 | 0.00 | 0.00 | 0.00 | 71 | 1011.6 |
| 20260509175127 | 28 | 278 | 4.8 | 4.8 | 0.00 | 0.00 | 0.00 | 71 | 1011.6 |
| 20260509174622 | 28 | 353 | 4.8 | 8.0 | 0.00 | 0.00 | 0.00 | 70 | 1011.5 |
| 20260509174118 | 29 | 312 | 4.8 | 4.8 | 0.00 | 0.00 | 0.00 | 70 | 1011.5 |
| 20260509173613 | 28 | 276 | 4.8 | 6.4 | 0.00 | 0.00 | 0.00 | 71 | 1011.8 |
| 20260509173109 | 28 | 265 | 8.0 | 9.7 | 0.00 | 0.00 | 0.00 | 72 | 1011.7 |
| 20260509172607 | 29 | 290 | 1.6 | 6.4 | 0.00 | 0.00 | 0.00 | 69 | 1011.6 |
| 20260509172103 | 28 | 310 | 3.2 | 9.7 | 0.00 | 0.00 | 0.00 | 70 | 1011.9 |
| 20260509171558 | 30 | 322 | 3.2 | 8.0 | 0.00 | 0.00 | 0.00 | 67 | 1011.8 |
| 20260509171055 | 28 | 241 | 4.8 | 8.0 | 0.00 | 0.00 | 0.00 | 73 | 1012.0 |
| 20260509170551 | 28 | 271 | 4.8 | 11.3 | 0.00 | 0.00 | 0.00 | 73 | 1011.7 |
| 20260509170047 | 28 | 300 | 4.8 | 4.8 | 0.00 | 0.00 | 0.00 | 73 | 1011.8 |
| 20260509165546 | 28 | 240 | 0.0 | 6.4 | 0.00 | 0.00 | 0.00 | 73 | 1011.7 |
| 20260509165041 | 28 | 95 | 4.8 | 6.4 | 0.00 | 0.00 | 0.00 | 73 | 1011.9 |
| 20260509164538 | 28 | 309 | 3.2 | 8.0 | 0.00 | 0.00 | 0.00 | 74 | 1011.9 |
| 20260509164033 | 28 | 273 | 0.0 | 8.0 | 0.00 | 0.00 | 0.00 | 72 | 1011.8 |
| 20260509163532 | 28 | 251 | 4.8 | 8.0 | 0.00 | 0.00 | 0.00 | 72 | 1011.9 |
| 20260509163031 | 27 | 246 | 1.6 | 9.7 | 0.00 | 0.00 | 0.00 | 78 | 1012.0 |
| 20260509162529 | 27 | 249 | 3.2 | 6.4 | 0.00 | 0.00 | 0.00 | 79 | 1012.2 |
| 20260509162025 | 27 | 241 | 1.6 | 6.4 | 0.00 | 0.00 | 0.00 | 78 | 1012.0 |
| 20260509161522 | 27 | 114 | 1.6 | 4.8 | 0.00 | 0.00 | 0.00 | 76 | 1012.0 |
| 20260509161021 | 27 | 103 | 0.0 | 4.8 | 0.00 | 0.00 | 0.00 | 77 | 1012.0 |
| 20260509160517 | 27 | 204 | 4.8 | 4.8 | 0.00 | 0.00 | 0.00 | 78 | 1011.7 |
| 20260509160014 | 27 | 268 | 6.4 | 6.4 | 0.00 | 0.00 | 0.00 | 80 | 1011.7 |
| 20260509155509 | 26 | 264 | 3.2 | 8.0 | 0.00 | 0.00 | 0.00 | 82 | 1011.9 |
| 20260509155006 | 26 | 262 | 4.8 | 6.4 | 0.00 | 0.00 | 0.00 | 85 | 1011.7 |
| 20260509154502 | 25 | 282 | 4.8 | 9.7 | 0.00 | 0.00 | 0.00 | 86 | 1011.9 |
| 20260509154000 | 26 | 263 | 3.2 | 9.7 | 0.00 | 0.00 | 0.00 | 84 | 1011.9 |
| 20260509153457 | 26 | 32 | 0.0 | 8.0 | 0.00 | 0.00 | 0.00 | 83 | 1011.6 |
| 20260509152953 | 25 | 282 | 3.2 | 8.0 | 0.00 | 0.00 | 0.00 | 87 | 1011.8 |
| 20260509152449 | 26 | 240 | 3.2 | 8.0 | 0.00 | 0.00 | 0.00 | 85 | 1011.8 |
| 20260509151947 | 25 | 285 | 3.2 | 8.0 | 0.00 | 0.00 | 0.00 | 88 | 1011.5 |
| 20260509151442 | 25 | 310 | 3.2 | 4.8 | 0.00 | 0.00 | 0.00 | 90 | 1011.6 |
| 20260509150940 | 24 | 255 | 4.8 | 6.4 | 0.00 | 0.00 | 0.00 | 91 | 1011.8 |
| 20260509150438 | 23 | 265 | 3.2 | 6.4 | 0.00 | 0.00 | 0.00 | 95 | 1011.9 |
| 20260509145936 | 23 | 234 | 1.6 | 4.8 | 0.00 | 0.00 | 0.00 | 97 | 1012.0 |
| 20260509145431 | 23 | 307 | 0.0 | 3.2 | 0.00 | 0.00 | 0.00 | 98 | 1012.2 |
| 20260509144927 | 23 | 292 | 3.2 | 4.8 | 0.00 | 0.00 | 0.00 | 99 | 1012.3 |
| 20260509144424 | 23 | 156 | 0.0 | 1.6 | 0.00 | 0.00 | 0.00 | 99 | 1012.6 |
| 20260509143921 | 22 | 214 | 3.2 | 3.2 | 0.00 | 0.00 | 0.00 | 99 | 1012.5 |
| 20260509143418 | 23 | 243 | 0.0 | 1.6 | 0.00 | 0.00 | 0.00 | 99 | 1012.3 |
| 20260509142914 | 22 | 269 | 0.0 | 3.2 | 0.00 | 0.00 | 0.00 | 99 | 1012.3 |
| 20260509142411 | 22 | 50 | 0.0 | 4.8 | 0.00 | 0.00 | 0.00 | 99 | 1012.2 |
| 20260509141907 | 22 | 114 | 0.0 | 1.6 | 0.00 | 0.00 | 0.00 | 99 | 1012.2 |
| 20260509141404 | 22 | 119 | 0.0 | 4.8 | 0.00 | 0.00 | 0.00 | 99 | 1012.1 |
| 20260509140901 | 22 | 95 | 3.2 | 4.8 | 0.00 | 0.00 | 0.00 | 99 | 1011.9 |
| 20260509140357 | 22 | 146 | 0.0 | 4.8 | 0.00 | 0.00 | 0.00 | 99 | 1011.8 |
| 20260509135855 | 22 | 96 | 3.2 | 4.8 | 0.00 | 0.00 | 0.00 | 99 | 1011.4 |
| 20260509135353 | 22 | 42 | 1.6 | 4.8 | 0.00 | 0.00 | 0.00 | 99 | 1011.5 |
| 20260509134850 | 22 | 86 | 3.2 | 4.8 | 0.00 | 0.00 | 0.00 | 99 | 1011.7 |
| 20260509134347 | 22 | 68 | 0.0 | 3.2 | 0.00 | 0.00 | 0.00 | 99 | 1011.5 |
| 20260509133844 | 22 | 303 | 3.2 | 6.4 | 0.00 | 0.00 | 0.00 | 99 | 1011.7 |
| 20260509133341 | 22 | 354 | 1.6 | 3.2 | 0.00 | 0.00 | 0.00 | 99 | 1011.9 |
| 20260509132840 | 22 | 324 | 1.6 | 3.2 | 0.00 | 0.00 | 0.00 | 99 | 1011.5 |
| 20260509132337 | 22 | 104 | 1.6 | 1.6 | 0.00 | 0.00 | 0.00 | 99 | 1011.8 |
| 20260509131834 | 22 | 347 | 3.2 | 6.4 | 0.00 | 0.00 | 0.00 | 99 | 1011.9 |
| 20260509131331 | 22 | 22 | 0.0 | 1.6 | 0.00 | 0.00 | 0.00 | 99 | 1011.7 |
| 20260509130827 | 22 | 147 | 0.0 | 3.2 | 0.00 | 0.00 | 0.00 | 99 | 1011.6 |
| 20260509130323 | 22 | 85 | 1.6 | 3.2 | 0.00 | 0.00 | 0.00 | 99 | 1011.4 |
| 20260509125820 | 22 | 145 | 0.0 | 4.8 | 0.00 | 0.00 | 0.00 | 99 | 1011.7 |
| 20260509125316 | 22 | 163 | 3.2 | 4.8 | 0.00 | 0.00 | 0.00 | 99 | 1011.4 |
| 20260509124813 | 22 | 110 | 0.0 | 3.2 | 0.00 | 0.00 | 0.00 | 99 | 1011.1 |
| 20260509124309 | 22 | 154 | 3.2 | 4.8 | 0.00 | 0.00 | 0.00 | 99 | 1011.3 |
| 20260509123808 | 22 | 162 | 1.6 | 3.2 | 0.00 | 0.00 | 0.00 | 99 | 1011.4 |
| 20260509123305 | 22 | 305 | 3.2 | 4.8 | 0.00 | 0.00 | 0.00 | 99 | 1011.5 |
| 20260509122800 | 22 | 7 | 0.0 | 3.2 | 0.00 | 0.00 | 0.00 | 99 | 1011.6 |
| 20260509122257 | 22 | 225 | 0.0 | 3.2 | 0.00 | 0.00 | 0.00 | 99 | 1011.6 |
| 20260509121754 | 22 | 164 | 0.0 | 3.2 | 0.00 | 0.00 | 0.00 | 99 | 1011.7 |
| 20260509121251 | 22 | 93 | 3.2 | 4.8 | 0.00 | 0.00 | 0.00 | 99 | 1011.9 |
| 20260509120749 | 22 | 73 | 0.0 | 4.8 | 0.00 | 0.00 | 0.00 | 99 | 1011.9 |
| 20260509120247 | 22 | 86 | 3.2 | 3.2 | 0.00 | 0.00 | 0.00 | 99 | 1011.7 |
| 20260509115745 | 22 | 29 | 0.0 | 4.8 | 0.00 | 0.00 | 0.00 | 99 | 1011.8 |
| 20260509115241 | 22 | 323 | 0.0 | 3.2 | 0.00 | 0.00 | 0.00 | 99 | 1011.9 |
| 20260509114740 | 22 | 113 | 0.0 | 1.6 | 0.00 | 0.00 | 0.00 | 99 | 1011.8 |
| 20260509114238 | 22 | 234 | 1.6 | 4.8 | 0.00 | 0.00 | 0.00 | 99 | 1011.9 |
| 20260509113737 | 22 | 0 | 3.2 | 3.2 | 0.00 | 0.00 | 0.00 | 99 | 1011.9 |
| 20260509113233 | 22 | 357 | 3.2 | 8.0 | 0.00 | 0.00 | 0.00 | 99 | 1011.7 |
| 20260509112730 | 22 | 56 | 3.2 | 6.4 | 0.00 | 0.00 | 0.00 | 99 | 1012.0 |
| 20260509112227 | 22 | 355 | 3.2 | 11.3 | 0.00 | 0.00 | 0.00 | 99 | 1011.9 |
| 20260509111724 | 22 | 315 | 4.8 | 9.7 | 0.00 | 0.00 | 0.00 | 99 | 1011.8 |
| 20260509111221 | 22 | 350 | 3.2 | 11.3 | 0.00 | 0.00 | 0.00 | 99 | 1011.4 |
| 20260509110719 | 22 | 336 | 9.7 | 12.9 | 0.00 | 0.00 | 0.00 | 99 | 1011.2 |
| 20260509110215 | 22 | 344 | 3.2 | 11.3 | 0.00 | 0.00 | 0.00 | 99 | 1011.2 |
| 20260509105713 | 22 | 350 | 3.2 | 6.4 | 0.00 | 0.00 | 0.00 | 99 | 1011.0 |
| 20260509105211 | 22 | 337 | 3.2 | 4.8 | 0.00 | 0.00 | 0.00 | 99 | 1011.0 |
| 20260509104707 | 22 | 345 | 4.8 | 4.8 | 0.00 | 0.00 | 0.00 | 98 | 1011.1 |
| 20260509104204 | 22 | 352 | 3.2 | 4.8 | 0.00 | 0.00 | 0.00 | 98 | 1011.1 |
| 20260509103702 | 22 | 129 | 0.0 | 1.6 | 0.00 | 0.00 | 0.00 | 98 | 1011.2 |
| 20260509103159 | 22 | 41 | 1.6 | 3.2 | 0.00 | 0.00 | 0.00 | 98 | 1011.4 |
| 20260509102658 | 22 | 89 | 0.0 | 3.2 | 0.00 | 0.00 | 0.00 | 98 | 1011.3 |
| 20260509102154 | 22 | 6 | 0.0 | 3.2 | 0.00 | 0.00 | 0.00 | 98 | 1011.4 |
| 20260509101650 | 22 | 333 | 1.6 | 3.2 | 0.00 | 0.00 | 0.00 | 98 | 1011.3 |
| 20260509101147 | 22 | 89 | 0.0 | 3.2 | 0.00 | 0.00 | 0.00 | 98 | 1011.5 |
| 20260509100645 | 22 | 12 | 1.6 | 3.2 | 0.00 | 0.00 | 0.00 | 98 | 1011.4 |
| 20260509100141 | 22 | 66 | 1.6 | 3.2 | 0.00 | 0.00 | 0.00 | 98 | 1011.1 |
| 20260509095638 | 22 | 85 | 3.2 | 4.8 | 0.00 | 0.00 | 0.00 | 98 | 1011.3 |
| 20260509095135 | 22 | 123 | 1.6 | 4.8 | 0.00 | 0.00 | 0.00 | 98 | 1011.4 |
| 20260509094632 | 22 | 102 | 0.0 | 3.2 | 0.00 | 0.00 | 0.00 | 98 | 1011.4 |
| 20260509094129 | 22 | 128 | 0.0 | 3.2 | 0.00 | 0.00 | 0.00 | 98 | 1010.9 |
| 20260509093627 | 22 | 327 | 1.6 | 3.2 | 0.00 | 0.00 | 0.00 | 98 | 1010.9 |
| 20260509093124 | 22 | 30 | 1.6 | 3.2 | 0.00 | 0.00 | 0.00 | 98 | 1010.8 |
| 20260509092622 | 22 | 3 | 1.6 | 3.2 | 0.00 | 0.00 | 0.00 | 98 | 1011.1 |
| 20260509092120 | 22 | 66 | 0.0 | 1.6 | 0.00 | 0.00 | 0.00 | 98 | 1010.9 |
| 20260509091618 | 22 | 100 | 1.6 | 3.2 | 0.00 | 0.00 | 0.00 | 98 | 1010.9 |
| 20260509091114 | 22 | 117 | 0.0 | 0.0 | 0.00 | 0.00 | 0.00 | 98 | 1010.9 |
| 20260509090612 | 22 | 104 | 3.2 | 3.2 | 0.00 | 0.00 | 0.00 | 98 | 1010.5 |
| 20260509090109 | 22 | 101 | 3.2 | 4.8 | 0.00 | 0.00 | 0.00 | 98 | 1010.6 |
| 20260509085607 | 22 | 98 | 0.0 | 3.2 | 0.00 | 0.00 | 0.00 | 98 | 1010.5 |
| 20260509085102 | 22 | 119 | 1.6 | 1.6 | 0.00 | 0.00 | 0.00 | 98 | 1010.4 |
| 20260509084559 | 22 | 128 | 0.0 | 3.2 | 0.00 | 0.00 | 0.00 | 97 | 1010.5 |
| 20260509084056 | 22 | 89 | 0.0 | 1.6 | 0.00 | 0.00 | 0.00 | 97 | 1010.6 |
| 20260509083554 | 22 | 309 | 0.0 | 0.0 | 0.00 | 0.00 | 0.00 | 97 | 1010.6 |
| 20260509083050 | 22 | 175 | 1.6 | 1.6 | 0.00 | 0.00 | 0.00 | 97 | 1010.6 |
| 20260509082548 | 22 | 239 | 1.6 | 4.8 | 0.00 | 0.00 | 0.00 | 97 | 1010.7 |
| 20260509082045 | 22 | 132 | 3.2 | 3.2 | 0.00 | 0.00 | 0.00 | 97 | 1010.9 |
| 20260509081542 | 22 | 74 | 0.0 | 3.2 | 0.00 | 0.00 | 0.00 | 97 | 1010.8 |
| 20260509081038 | 22 | 233 | 0.0 | 1.6 | 0.00 | 0.00 | 0.00 | 97 | 1010.9 |
| 20260509080536 | 22 | 141 | 0.0 | 4.8 | 0.00 | 0.00 | 0.00 | 97 | 1010.5 |
| 20260509080034 | 22 | 263 | 3.2 | 3.2 | 0.00 | 0.00 | 0.00 | 97 | 1010.9 |
| 20260509075531 | 22 | 48 | 0.0 | 4.8 | 0.00 | 0.00 | 0.00 | 97 | 1011.1 |
| 20260509075029 | 22 | 110 | 0.0 | 4.8 | 0.00 | 0.00 | 0.00 | 97 | 1010.7 |
| 20260509074526 | 22 | 143 | 0.0 | 6.4 | 0.00 | 0.00 | 0.00 | 96 | 1010.4 |
| 20260509074023 | 22 | 118 | 4.8 | 6.4 | 0.00 | 0.00 | 0.00 | 96 | 1010.5 |
| 20260509073519 | 22 | 231 | 0.0 | 6.4 | 0.00 | 0.00 | 0.00 | 96 | 1010.7 |
| 20260509073016 | 22 | 134 | 3.2 | 6.4 | 0.00 | 0.00 | 0.00 | 96 | 1010.7 |
| 20260509072512 | 22 | 218 | 0.0 | 3.2 | 0.00 | 0.00 | 0.00 | 96 | 1010.6 |
| 20260509072009 | 22 | 322 | 0.0 | 0.0 | 0.00 | 0.00 | 0.00 | 96 | 1010.6 |
| 20260509071506 | 22 | 255 | 1.6 | 1.6 | 0.00 | 0.00 | 0.00 | 96 | 1010.6 |
| 20260509071003 | 22 | 298 | 0.0 | 4.8 | 0.00 | 0.00 | 0.00 | 96 | 1010.9 |
| 20260509070500 | 22 | 266 | 3.2 | 3.2 | 0.00 | 0.00 | 0.00 | 95 | 1011.0 |
| 20260509065956 | 22 | 329 | 0.0 | 1.6 | 0.00 | 0.00 | 0.00 | 95 | 1011.0 |
| 20260509065452 | 22 | 242 | 1.6 | 3.2 | 0.00 | 0.00 | 0.00 | 95 | 1011.2 |
| 20260509064948 | 22 | 226 | 1.6 | 3.2 | 0.00 | 0.00 | 0.00 | 95 | 1010.8 |
| 20260509064446 | 22 | 250 | 1.6 | 6.4 | 0.00 | 0.00 | 0.00 | 95 | 1010.9 |
| 20260509063944 | 22 | 211 | 1.6 | 6.4 | 0.00 | 0.00 | 0.00 | 95 | 1010.8 |
| 20260509063439 | 22 | 256 | 0.0 | 3.2 | 0.00 | 0.00 | 0.00 | 95 | 1011.0 |
| 20260509062936 | 22 | 346 | 0.0 | 3.2 | 0.00 | 0.00 | 0.00 | 95 | 1010.7 |
| 20260509062434 | 22 | 97 | 1.6 | 4.8 | 0.00 | 0.00 | 0.00 | 95 | 1010.7 |
| 20260509061931 | 22 | 55 | 0.0 | 1.6 | 0.00 | 0.00 | 0.00 | 95 | 1010.6 |
| 20260509061428 | 22 | 336 | 0.0 | 1.6 | 0.00 | 0.00 | 0.00 | 95 | 1010.8 |